Home   Weather   Ushuaia   Past weeks

Flag for Argentina Past Weather in Ushuaia, Tierra del Fuego, Argentina — Yesterday and Last 2 Weeks

Now
39 °F

Passing clouds.


Feels Like: 37 °F
Forecast: 39 / 44 °F
Wind: 3 mph from South

Location: Ushuaia Aerodrome

Current Time: Apr 27, 2017 at 2:33:01 am

Latest Report: Apr 27, 2017 at 2:00 am


Visibility: N/A

Pressure: 29.30 "Hg

Humidity: 87%

Dew Point: 36 °F

Location of UshuaiaLocation

Past Weather in Ushuaia — Graph

°F

Ushuaia Temperature Yesterday

Maximum temperature yesterday: 45 °F (at 1:00 am)
Minimum temperature yesterday: 41 °F (at 7:00 am)
Average temperature yesterday: 43 °F

High & Low Weather Summary for the Past Weeks

 TemperatureHumidityPressure
High59 °F (Apr 15, 3:00 pm)100% (Apr 17, 10:00 am)30.21 "Hg (Apr 17, 10:00 am)
Low37 °F (Apr 22, 1:00 am)41% (Apr 19, 3:00 pm)29.00 "Hg (Apr 18, 7:00 pm)
Average46 °F73%29.64 "Hg
* Reported Apr 12 1:00 am — Apr 27 1:00 am, Ushuaia, Weather by CustomWeather, © 2017

Note: Actual official high and low records may vary slightly from our data, if they occured in-between our weather recording intervals... More about our weather records

Advertising

Ushuaia Weather History for the Previous 24 Hours

Scroll right to see more
 ConditionsComfort  
Time TempWeatherWind HumidityBarometerVisibility
1:00 am
Thu, Apr 27
39 °FPassing clouds.12 mph87%29.30 "HgN/A
12:00 am41 °FPassing clouds.22 mph87%29.30 "HgN/A
11:00 pm
Wed, Apr 26
43 °FPassing clouds.24 mph81%29.30 "HgN/A
10:00 pm43 °FPassing clouds.15 mph81%29.30 "HgN/A
9:00 pm43 °FPassing clouds.17 mph76%29.30 "HgN/A
8:00 pm43 °FPassing clouds.22 mph81%29.30 "HgN/A
7:00 pm41 °FScattered showers. Passing clouds.17 mph93%29.30 "HgN/A
6:00 pm43 °FScattered showers. Scattered clouds.18 mph81%29.30 "HgN/A
5:00 pm43 °FScattered clouds.25 mph81%29.30 "HgN/A
4:00 pm45 °FScattered showers. Scattered clouds.3 mph76%29.30 "HgN/A
3:00 pm45 °FDrizzle. Broken clouds.No wind76%29.30 "HgN/A
2:00 pm45 °FDrizzle. Broken clouds.3 mph76%29.30 "HgN/A
1:00 pm45 °FBroken clouds.5 mph71%29.33 "HgN/A
12:00 pm45 °FBroken clouds.8 mph76%29.33 "HgN/A
11:00 am43 °FBroken clouds.8 mph71%29.36 "HgN/A
10:00 am43 °FScattered clouds.9 mph71%29.39 "HgN/A
9:00 am41 °FPartly sunny.6 mph70%29.42 "HgN/A
8:00 am41 °FPassing clouds.3 mph66%29.42 "HgN/A
7:00 am41 °FPassing clouds.10 mph70%29.45 "HgN/A
6:00 am45 °FPassing clouds.12 mph66%29.45 "HgN/A
4:00 am43 °FPassing clouds.20 mph76%29.45 "HgN/A
3:00 am45 °FPassing clouds.18 mph71%29.47 "HgN/A
2:00 am45 °FPassing clouds.22 mph76%29.47 "HgN/A
Weather by CustomWeather, © 2017

See weather overviewHow to use our weather pages